"startDT [UTC]","vpos","CH4 [ppm]","stdev(CH4) [ppm]","CO2 [ppm]","stdev(CO2) [ppm]","H2O_reported [%]","stdev(H2O_reported)","CavityPressure [torr]","CavityTemp [C]","OutletValve","CH4_dry [ppm]","CO2_dry [ppm]","DasTemp [C]","EtalonTemp [C]","WarmBoxTemp [C]","MPVPosition","T_ECpre [C]","T_EC1 [C]","T_EC2 [C]","p_inlet [hPa]","p_in [hPa]","p_out [hPa]","T_inlet [C]","RH_inlet [%]","dwpt_inlet [C]","T_vent [C]","RH_vent [%]","dwpt_vent [C]","flow_vent [l min-1]","flow_inlet [l min-1]","dwpt_sample [C]","T_room [C]"
2013-10-15 00:00:00,0.0,1.90974,0.00101,397.177,0.027,0.3940,0.0021,139.994,45.000,31595.36888,1.91739,399.080,31.938,45.057,45.000,0.00,0.11,-272.58,-272.64,-16,569,1,18.2,14.0,-9.8,18.2,14.7,-9.1,5.73,2.53,-8.9,24.6
2013-10-15 00:01:00,0.0,1.91151,0.00137,397.167,0.025,0.3929,0.0014,139.999,45.000,31594.69509,1.91889,399.069,31.942,45.057,45.000,0.00,0.11,-272.58,-272.64,-16,569,1,18.2,14.0,-9.8,18.2,14.7,-9.1,5.73,2.58,-8.9,24.6
2013-10-15 00:02:00,0.0,1.90938,0.00061,397.133,0.023,0.3934,0.0012,140.000,45.000,31596.54693,1.91712,399.036,31.946,45.057,45.000,0.00,0.11,-272.58,-272.64,-16,569,1,18.2,14.0,-9.7,18.2,14.7,-9.1,5.73,2.60,-8.9,24.6
2013-10-15 00:03:00,0.0,1.90852,0.00093,397.121,0.016,0.3964,0.0011,139.994,45.000,31595.06645,1.91596,399.034,31.951,45.057,45.000,0.00,0.11,-272.57,-272.64,-16,569,1,18.2,14.1,-9.7,18.2,14.7,-9.1,5.73,2.57,-8.9,24.6
2013-10-15 00:04:00,0.0,1.90993,0.00167,397.160,0.041,0.3951,0.0017,140.003,45.000,31596.97575,1.91746,399.072,31.954,45.057,45.000,0.00,0.11,-272.58,-272.64,-16,569,1,18.2,14.1,-9.7,18.2,14.7,-9.1,5.73,2.52,-8.9,24.6
2013-10-15 00:05:00,0.0,1.90919,0.00116,397.130,0.041,0.3954,0.0026,139.998,45.000,31596.46772,1.91673,399.034,31.948,45.057,45.000,0.00,0.11,-272.58,-272.64,-16,569,1,18.2,14.1,-9.7,18.2,14.8,-9.0,5.73,2.52,-8.9,24.6
2013-10-15 00:06:00,0.0,1.90843,0.00091,397.162,0.049,0.3967,0.0017,140.003,45.000,31597.12476,1.91581,399.079,31.951,45.057,45.000,0.00,0.11,-272.57,-272.64,-16,569,1,18.2,14.1,-9.7,18.2,14.8,-9.0,5.73,2.57,-8.9,24.6
2013-10-15 00:07:00,0.0,1.90922,0.00149,397.158,0.035,0.3970,0.0011,140.000,45.000,31597.38369,1.91708,399.082,31.939,45.057,45.000,0.00,0.11,-272.58,-272.64,-16,569,1,18.2,14.1,-9.7,18.2,14.8,-9.0,5.73,2.60,-8.9,24.6
2013-10-15 00:08:00,0.0,1.90868,0.00077,397.166,0.020,0.3960,0.0024,140.005,45.000,31599.05195,1.91613,399.079,31.938,45.057,45.000,0.00,0.11,-272.57,-272.64,-16,569,1,18.2,14.1,-9.7,18.2,14.8,-9.0,5.73,2.59,-8.9,24.6
2013-10-15 00:09:00,0.0,1.90917,0.00174,397.125,0.038,0.3952,0.0009,139.997,45.000,31595.94095,1.91645,399.034,31.938,45.057,45.000,0.00,0.11,-272.57,-272.64,-16,569,1,18.2,14.2,-9.6,18.2,14.8,-9.0,5.73,2.53,-8.9,24.6
2013-10-15 00:10:00,0.0,1.90836,0.00098,397.107,0.031,0.3972,0.0015,140.002,45.000,31597.00326,1.91603,399.025,31.938,45.057,45.000,0.00,0.11,-272.58,-272.64,-16,569,1,18.2,14.2,-9.6,18.2,14.8,-9.0,5.73,2.52,-8.9,24.6
2013-10-15 00:11:00,0.0,1.90923,0.00128,397.105,0.025,0.3983,0.0009,139.999,45.000,31594.96662,1.91705,399.033,31.938,45.057,45.000,0.00,0.11,-272.58,-272.64,-16,569,1,18.2,14.2,-9.6,18.2,14.8,-9.0,5.73,2.55,-8.9,24.6
2013-10-15 00:12:00,0.0,1.90780,0.00089,397.089,0.016,0.3980,0.0009,140.002,45.000,31596.26513,1.91526,399.011,31.938,45.057,45.000,0.00,0.11,-272.58,-272.64,-16,569,1,18.1,14.2,-9.6,18.2,14.8,-9.0,5.73,2.60,-8.9,24.6
2013-10-15 00:13:00,0.0,1.90901,0.00152,397.103,0.031,0.3966,0.0007,140.002,45.000,31593.73083,1.91643,399.021,31.938,45.057,45.000,0.00,0.11,-272.57,-272.64,-16,569,1,18.2,14.2,-9.6,18.2,14.8,-9.0,5.73,2.60,-8.9,24.6
2013-10-15 00:14:00,0.0,1.90857,0.00102,397.089,0.018,0.3970,0.0018,140.000,45.000,31593.48611,1.91617,399.004,31.938,45.057,45.000,0.00,0.11,-272.58,-272.64,-16,569,1,18.1,14.2,-9.7,18.2,14.8,-9.0,5.73,2.56,-8.9,24.6
2013-10-15 00:15:00,0.0,1.90918,0.00167,397.127,0.026,0.3984,0.0019,140.001,45.000,31595.92681,1.91686,399.053,31.938,45.057,45.000,0.00,0.11,-272.58,-272.64,-16,568,1,18.1,14.2,-9.6,18.2,14.8,-9.0,5.73,2.52,-8.9,24.6
2013-10-15 00:16:00,0.0,1.90904,0.00098,397.117,0.018,0.3984,0.0014,140.004,45.000,31597.57854,1.91658,399.040,31.941,45.057,45.000,0.00,0.11,-272.58,-272.64,-16,568,1,18.1,14.2,-9.6,18.2,14.8,-9.0,5.73,2.53,-8.9,24.6
2013-10-15 00:17:00,0.0,1.90870,0.00085,397.127,0.030,0.3991,0.0028,140.001,45.000,31595.52226,1.91621,399.052,31.943,45.057,45.000,0.00,0.11,-272.57,-272.63,-16,569,1,18.2,14.2,-9.6,18.2,14.9,-9.0,5.73,2.58,-8.9,24.6
2013-10-15 00:18:00,0.0,1.90868,0.00081,397.131,0.008,0.3988,0.0023,140.000,45.000,31593.22324,1.91615,399.059,31.940,45.057,45.000,0.00,0.11,-272.58,-272.64,-16,569,1,18.1,14.2,-9.6,18.2,14.9,-9.0,5.73,2.61,-8.9,24.6
2013-10-15 00:19:00,0.0,1.90877,0.00102,397.096,0.050,0.3992,0.0018,139.994,45.000,31594.36087,1.91642,399.026,31.938,45.057,45.000,0.00,0.11,-272.57,-272.64,-16,569,1,18.2,14.2,-9.6,18.2,14.9,-9.0,5.73,2.58,-8.9,24.6
2013-10-15 00:20:00,0.0,1.90888,0.00117,397.076,0.063,0.3999,0.0013,140.004,45.000,31595.84786,1.91664,399.011,31.938,45.058,45.000,0.00,0.11,-272.56,-272.64,-16,569,1,18.1,14.2,-9.6,18.2,14.9,-9.0,5.73,2.53,-8.9,24.6
2013-10-15 00:21:00,0.0,1.90928,0.00151,397.109,0.047,0.4002,0.0018,139.998,45.000,31596.66865,1.91671,399.037,31.938,45.058,45.000,0.00,0.11,-272.58,-272.64,-16,568,1,18.1,14.2,-9.6,18.2,14.9,-9.0,5.73,2.52,-8.9,24.6
2013-10-15 00:22:00,0.0,1.90873,0.00083,397.086,0.048,0.4001,0.0014,140.006,45.000,31597.95994,1.91635,399.020,31.938,45.057,45.000,0.00,0.11,-272.58,-272.64,-16,568,1,18.1,14.2,-9.6,18.2,14.9,-9.0,5.73,2.57,-8.9,24.6
2013-10-15 00:23:00,0.0,1.91079,0.00080,397.139,0.028,0.4001,0.0019,140.002,45.000,31596.10609,1.91797,399.069,31.938,45.057,45.000,0.00,0.11,-272.58,-272.64,-16,568,1,18.1,14.3,-9.6,18.2,14.9,-9.0,5.73,2.60,-8.9,24.6
2013-10-15 00:24:00,0.0,1.91077,0.00129,397.155,0.032,0.4001,0.0023,140.002,45.000,31594.63035,1.91868,399.089,31.938,45.058,45.000,0.00,0.11,-272.58,-272.64,-16,569,1,18.1,14.3,-9.5,18.2,14.9,-8.9,5.73,2.60,-8.9,24.6
2013-10-15 00:25:00,0.0,1.90955,0.00096,397.144,0.029,0.3994,0.0020,140.001,45.000,31593.24602,1.91706,399.073,31.938,45.058,45.000,0.00,0.11,-272.58,-272.64,-16,569,1,18.2,14.3,-9.5,18.2,14.9,-8.9,5.73,2.54,-8.9,24.6
2013-10-15 00:26:00,0.0,1.90837,0.00087,397.136,0.022,0.4002,0.0010,140.003,45.000,31590.78052,1.91614,399.069,31.938,45.058,45.000,0.00,0.11,-272.58,-272.64,-16,569,1,18.2,14.3,-9.5,18.2,14.9,-8.9,5.73,2.52,-8.9,24.6
2013-10-15 00:27:00,0.0,1.90872,0.00134,397.121,0.042,0.4002,0.0018,140.005,45.000,31593.93418,1.91609,399.055,31.943,45.058,45.000,0.00,0.11,-272.58,-272.64,-16,569,1,18.2,14.3,-9.5,18.2,14.9,-8.9,5.73,2.54,-8.9,24.6
2013-10-15 00:28:00,0.0,1.90940,0.00086,397.141,0.012,0.4025,0.0012,140.001,45.000,31592.48796,1.91713,399.083,31.938,45.058,45.000,0.00,0.11,-272.58,-272.64,-16,568,1,18.2,14.3,-9.5,18.2,14.9,-8.9,5.73,2.58,-8.9,24.6
2013-10-15 00:29:00,0.0,1.91125,0.00115,397.161,0.039,0.4014,0.0018,140.000,45.000,31591.67325,1.91896,399.103,31.944,45.058,45.000,0.00,0.11,-272.58,-272.64,-16,568,1,18.2,14.3,-9.5,18.2,14.9,-8.9,5.73,2.60,-8.9,24.6
2013-10-15 00:30:00,0.0,1.90922,0.00123,397.108,0.045,0.4020,0.0019,139.999,45.000,31590.72371,1.91678,399.050,31.939,45.058,45.000,0.00,0.11,-272.58,-272.63,-16,568,1,18.2,14.3,-9.5,18.2,15.0,-8.9,5.73,2.57,-8.9,24.6
2013-10-15 00:31:00,0.0,1.90907,0.00072,397.128,0.048,0.4010,0.0011,140.001,45.000,31589.97039,1.91686,399.067,31.951,45.057,45.000,0.00,0.11,-272.58,-272.64,-16,568,1,18.2,14.3,-9.5,18.2,15.0,-8.9,5.73,2.52,-8.9,24.6
2013-10-15 00:32:00,0.0,1.90848,0.00052,397.113,0.021,0.4006,0.0007,140.004,45.000,31591.74615,1.91618,399.049,31.969,45.057,45.000,0.00,0.11,-272.58,-272.65,-16,568,0,18.2,14.3,-9.5,18.2,15.0,-8.9,5.73,2.52,-8.9,24.6
2013-10-15 00:33:00,0.0,1.90778,0.00088,397.132,0.040,0.4012,0.0010,139.999,45.000,31590.86851,1.91532,399.067,31.952,45.057,45.000,0.00,0.11,-272.58,-272.64,-16,569,1,18.2,14.3,-9.5,18.2,14.9,-8.9,5.73,2.57,-8.9,24.6
2013-10-15 00:34:00,0.0,1.90848,0.00113,397.166,0.025,0.4012,0.0022,139.997,45.000,31590.18689,1.91614,399.104,31.973,45.057,45.000,0.00,0.11,-272.58,-272.64,-16,569,1,18.2,14.3,-9.5,18.2,14.9,-8.9,5.73,2.60,-8.8,24.6
2013-10-15 00:35:00,0.0,1.90969,0.00186,397.137,0.028,0.4021,0.0022,140.000,45.000,31593.43563,1.91714,399.080,31.990,45.057,45.000,0.00,0.11,-272.58,-272.64,-16,569,0,18.2,14.3,-9.5,18.2,14.9,-8.9,5.73,2.59,-8.9,24.6
2013-10-15 00:36:00,0.0,1.90743,0.00117,397.115,0.047,0.4019,0.0026,140.007,45.000,31594.87393,1.91538,399.064,31.999,45.057,45.000,0.00,0.11,-272.57,-272.64,-16,569,1,18.2,14.3,-9.5,18.2,14.9,-8.9,5.73,2.54,-8.8,24.6
2013-10-15 00:37:00,0.0,1.90851,0.00129,397.112,0.032,0.4016,0.0016,140.005,45.000,31594.21531,1.91609,399.049,31.995,45.057,45.000,0.00,0.11,-272.57,-272.64,-16,569,1,18.2,14.2,-9.5,18.2,14.9,-8.9,5.73,2.52,-8.9,24.7
2013-10-15 00:38:00,0.0,1.90737,0.00136,397.114,0.014,0.3996,0.0033,140.001,45.000,31595.14921,1.91500,399.042,31.993,45.057,45.000,0.00,0.11,-272.58,-272.64,-16,569,0,18.2,14.2,-9.6,18.2,14.9,-8.9,5.73,2.55,-8.9,24.7
2013-10-15 00:39:00,0.0,1.90785,0.00086,397.099,0.029,0.3989,0.0016,139.998,45.000,31595.12769,1.91535,399.029,32.000,45.057,45.000,0.00,0.11,-272.58,-272.64,-16,569,0,18.2,14.2,-9.6,18.2,14.9,-9.0,5.73,2.59,-8.8,24.6
2013-10-15 00:40:00,0.0,1.90785,0.00193,397.090,0.039,0.3971,0.0016,140.004,45.000,31597.50973,1.91529,399.009,32.000,45.057,45.000,0.00,0.11,-272.58,-272.64,-16,569,0,18.2,14.2,-9.6,18.2,14.8,-9.0,5.73,2.60,-8.8,24.6
2013-10-15 00:41:00,0.0,1.90685,0.00124,397.104,0.027,0.3982,0.0012,140.003,45.000,31595.69150,1.91468,399.026,31.998,45.057,45.000,0.00,0.11,-272.58,-272.65,-16,569,0,18.2,14.1,-9.6,18.2,14.8,-9.0,5.73,2.56,-8.8,24.6
2013-10-15 00:42:00,0.0,1.90812,0.00132,397.106,0.030,0.3968,0.0011,140.003,45.000,31593.63482,1.91555,399.027,32.000,45.057,45.000,0.00,0.11,-272.58,-272.65,-16,569,0,18.2,14.1,-9.6,18.2,14.8,-9.0,5.73,2.52,-8.9,24.6
2013-10-15 00:43:00,0.0,1.90896,0.00177,397.130,0.035,0.3968,0.0013,140.002,45.000,31593.23996,1.91606,399.040,32.000,45.057,45.000,0.00,0.11,-272.58,-272.64,-16,569,1,18.2,14.1,-9.7,18.2,14.8,-9.0,5.73,2.53,-8.8,24.6
2013-10-15 00:44:00,0.0,1.90770,0.00137,397.157,0.021,0.3973,0.0012,139.997,45.000,31590.59201,1.91567,399.075,32.000,45.058,45.000,0.00,0.11,-272.59,-272.64,-16,569,1,18.2,14.1,-9.7,18.2,14.8,-9.0,5.73,2.56,-8.8,24.6
2013-10-15 00:45:00,0.0,1.90672,0.00063,397.108,0.030,0.3969,0.0021,140.001,45.000,31590.95669,1.91440,399.034,32.000,45.058,45.000,0.00,0.11,-272.58,-272.64,-16,568,0,18.2,14.1,-9.7,18.2,14.7,-9.1,5.73,2.60,-8.8,24.6
2013-10-15 00:46:00,0.0,1.90716,0.00110,397.104,0.037,0.3954,0.0020,140.003,45.000,31593.20844,1.91443,399.010,32.003,45.058,45.000,0.00,0.11,-272.59,-272.64,-16,569,0,18.2,14.0,-9.7,18.2,14.7,-9.1,5.73,2.60,-8.8,24.6
2013-10-15 00:47:00,0.0,1.90844,0.00126,397.160,0.026,0.3941,0.0014,140.005,45.000,31590.94801,1.91588,399.064,32.002,45.058,45.000,0.00,0.11,-272.57,-272.64,-16,568,1,18.2,14.0,-9.8,18.2,14.7,-9.1,5.73,2.56,-8.8,24.6
2013-10-15 00:48:00,0.0,1.90764,0.00083,397.131,0.027,0.3944,0.0020,140.002,45.000,31589.63072,1.91528,399.038,32.009,45.058,45.000,0.00,0.11,-272.58,-272.64,-16,569,0,18.2,14.0,-9.8,18.2,14.7,-9.1,5.73,2.53,-8.8,24.6
2013-10-15 00:49:00,0.0,1.90823,0.00131,397.169,0.013,0.3973,0.0017,140.005,45.000,31591.33803,1.91576,399.086,32.000,45.058,45.000,0.00,0.11,-272.58,-272.64,-16,568,0,18.2,14.0,-9.7,18.2,14.7,-9.1,5.73,2.52,-8.8,24.6
2013-10-15 00:50:00,0.0,1.90758,0.00075,397.129,0.016,0.3967,0.0015,140.000,45.000,31591.42245,1.91496,399.047,32.002,45.058,45.000,0.00,0.11,-272.58,-272.64,-16,569,1,18.2,14.1,-9.7,18.2,14.7,-9.1,5.73,2.55,-8.9,24.6
2013-10-15 00:51:00,0.0,1.90746,0.00125,397.155,0.027,0.3971,0.0017,140.000,45.000,31590.41574,1.91528,399.074,32.003,45.058,45.000,0.00,0.11,-272.58,-272.64,-16,569,1,18.2,14.1,-9.7,18.2,14.8,-9.0,5.73,2.58,-8.8,24.6
2013-10-15 00:52:00,0.0,1.90686,0.00091,397.124,0.026,0.3968,0.0019,140.000,45.000,31591.92424,1.91435,399.040,32.021,45.058,45.000,0.00,0.11,-272.58,-272.64,-16,569,1,18.2,14.1,-9.7,18.2,14.8,-9.0,5.73,2.59,-8.8,24.6
2013-10-15 00:53:00,0.0,1.90627,0.00075,397.132,0.035,0.3920,0.0030,140.002,45.000,31591.83059,1.91382,399.030,32.051,45.057,45.000,0.00,0.11,-272.58,-272.64,-16,569,1,18.2,14.0,-9.8,18.2,14.6,-9.1,5.73,2.56,-8.8,24.6
2013-10-15 00:54:00,0.0,1.90627,0.00047,397.148,0.021,0.3909,0.0014,140.000,45.000,31590.98147,1.91376,399.034,32.038,45.057,45.000,0.00,0.12,-272.58,-272.63,-16,568,1,18.2,13.9,-9.9,18.2,14.5,-9.2,5.73,2.53,-8.8,24.6
2013-10-15 00:55:00,0.0,1.90650,0.00064,397.179,0.026,0.3885,0.0011,140.001,45.000,31589.52992,1.91385,399.053,32.027,45.057,45.000,0.00,0.11,-272.58,-272.64,-16,568,1,18.2,13.8,-10.0,18.2,14.5,-9.3,5.73,2.52,-8.8,24.6
2013-10-15 00:56:00,0.0,1.90602,0.00058,397.171,0.044,0.3879,0.0014,140.002,45.000,31591.10879,1.91334,399.046,32.054,45.057,45.000,0.00,0.11,-272.58,-272.64,-16,568,1,18.2,13.7,-10.0,18.2,14.4,-9.4,5.73,2.55,-8.8,24.6
2013-10-15 00:57:00,0.0,1.90644,0.00065,397.152,0.021,0.3869,0.0010,139.992,45.000,31590.21998,1.91367,399.021,32.061,45.057,45.000,0.00,0.11,-272.57,-272.64,-16,568,0,18.2,13.7,-10.0,18.2,14.4,-9.4,5.73,2.60,-8.8,24.6
2013-10-15 00:58:00,0.0,1.90652,0.00070,397.165,0.025,0.3859,0.0022,140.002,45.000,31593.08727,1.91384,399.034,32.051,45.057,45.000,0.00,0.11,-272.57,-272.63,-16,568,1,18.2,13.7,-10.0,18.2,14.4,-9.4,5.73,2.59,-8.8,24.6
2013-10-15 00:59:00,0.0,1.90696,0.00082,397.170,0.041,0.3851,0.0027,140.005,45.000,31593.97847,1.91432,399.026,32.056,45.057,45.000,0.00,0.11,-272.58,-272.64,-16,568,1,18.2,13.7,-10.1,18.2,14.4,-9.4,5.73,2.56,-8.8,24.6
2013-10-15 01:00:00,0.0,1.90577,0.00042,397.150,0.041,0.3835,0.0018,140.000,45.000,31593.44852,1.91317,399.004,32.043,45.057,45.000,0.00,0.12,-272.57,-272.64,-16,569,1,18.2,13.7,-10.1,18.2,14.3,-9.4,5.73,2.52,-8.8,24.6
2013-10-15 01:01:00,0.0,1.90656,0.00095,397.182,0.028,0.3837,0.0020,140.006,45.000,31596.70039,1.91374,399.036,32.048,45.057,45.000,0.00,0.11,-272.58,-272.64,-16,569,1,18.2,13.6,-10.1,18.2,14.3,-9.5,5.73,2.52,-8.8,24.6
2013-10-15 01:02:00,0.0,1.90621,0.00047,397.121,0.022,0.3861,0.0015,140.006,45.000,31596.57058,1.91362,398.984,32.028,45.058,45.000,0.00,0.11,-272.58,-272.65,-16,568,0,18.2,13.7,-10.1,18.2,14.3,-9.4,5.73,2.57,-8.8,24.6
2013-10-15 01:03:00,0.0,1.90580,0.00048,397.123,0.020,0.3861,0.0012,140.002,45.000,31594.32226,1.91321,398.986,32.038,45.058,45.000,0.00,0.11,-272.58,-272.64,-16,568,1,18.2,13.7,-10.0,18.2,14.4,-9.4,5.73,2.59,-8.8,24.6
2013-10-15 01:04:00,0.0,1.90565,0.00055,397.149,0.020,0.3840,0.0011,140.000,45.000,31593.27625,1.91291,399.003,32.026,45.058,45.000,0.00,0.11,-272.58,-272.64,-16,568,1,18.2,13.7,-10.1,18.2,14.3,-9.4,5.73,2.60,-8.8,24.6
2013-10-15 01:05:00,0.0,1.90580,0.00056,397.117,0.046,0.3838,0.0025,139.997,45.000,31592.07986,1.91295,398.971,32.026,45.058,45.000,0.00,0.11,-272.58,-272.64,-16,568,1,18.2,13.7,-10.1,18.2,14.3,-9.4,5.73,2.55,-8.8,24.6
2013-10-15 01:06:00,0.0,1.90597,0.00033,397.142,0.014,0.3846,0.0029,140.002,45.000,31593.01990,1.91333,399.001,32.037,45.058,45.000,0.00,0.11,-272.58,-272.64,-16,568,1,18.2,13.6,-10.1,18.2,14.3,-9.4,5.73,2.52,-8.8,24.6
2013-10-15 01:07:00,0.0,1.90623,0.00063,397.169,0.036,0.3838,0.0020,140.001,45.000,31592.64041,1.91339,399.017,32.025,45.058,45.000,0.00,0.12,-272.58,-272.65,-16,568,1,18.2,13.6,-10.1,18.2,14.3,-9.5,5.73,2.52,-8.8,24.6
2013-10-15 01:08:00,0.0,1.90544,0.00088,397.160,0.023,0.3836,0.0022,140.002,45.000,31593.93746,1.91297,399.017,32.040,45.057,45.000,0.00,0.11,-272.57,-272.64,-16,568,1,18.2,13.6,-10.2,18.2,14.3,-9.5,5.73,2.56,-8.8,24.6
2013-10-15 01:09:00,0.0,1.90556,0.00033,397.185,0.023,0.3833,0.0014,139.999,45.000,31592.24599,1.91268,399.032,32.021,45.057,45.000,0.00,0.11,-272.58,-272.64,-16,568,1,18.2,13.5,-10.2,18.2,14.2,-9.5,5.73,2.59,-8.8,24.6
2013-10-15 01:10:00,0.0,1.90635,0.00045,397.189,0.034,0.3839,0.0020,140.008,45.000,31594.44070,1.91358,399.043,32.014,45.058,45.000,0.00,0.11,-272.58,-272.64,-16,568,1,18.2,13.6,-10.1,18.2,14.3,-9.5,5.73,2.59,-8.8,24.6
2013-10-15 01:11:00,0.0,1.90622,0.00051,397.174,0.045,0.3867,0.0019,139.997,45.000,31591.12012,1.91356,399.044,32.049,45.057,45.000,0.00,0.11,-272.57,-272.64,-16,568,1,18.2,13.7,-10.1,18.2,14.3,-9.4,5.73,2.55,-8.8,24.6
2013-10-15 01:12:00,0.0,1.90669,0.00081,397.168,0.011,0.3828,0.0021,140.000,45.000,31594.30303,1.91395,399.014,32.058,45.057,45.000,0.00,0.11,-272.58,-272.64,-16,568,1,18.2,13.6,-10.1,18.2,14.3,-9.5,5.73,2.52,-8.8,24.6
2013-10-15 01:13:00,0.0,1.90618,0.00083,397.172,0.051,0.3861,0.0019,139.998,45.000,31590.71200,1.91353,399.038,32.052,45.057,45.000,0.00,0.11,-272.57,-272.64,-16,568,1,18.2,13.7,-10.1,18.2,14.4,-9.4,5.73,2.52,-8.8,24.6
2013-10-15 01:14:00,0.0,1.90672,0.00076,397.171,0.022,0.3863,0.0013,140.001,45.000,31591.46372,1.91387,399.032,32.059,45.057,45.000,0.00,0.11,-272.58,-272.64,-16,568,1,18.2,13.7,-10.1,18.2,14.4,-9.4,5.73,2.56,-8.8,24.6
2013-10-15 01:15:00,0.0,1.90706,0.00079,397.141,0.025,0.3868,0.0014,139.998,45.000,31590.94883,1.91466,399.016,32.061,45.057,45.000,0.00,0.11,-272.57,-272.64,-16,568,1,18.2,13.7,-10.0,18.2,14.4,-9.4,5.73,2.59,-8.8,24.6
2013-10-15 01:16:00,0.0,1.90623,0.00046,397.157,0.008,0.3864,0.0013,140.000,45.000,31592.32075,1.91345,399.020,32.061,45.057,45.000,0.00,0.11,-272.58,-272.64,-16,568,1,18.2,13.7,-10.1,18.2,14.4,-9.4,5.73,2.59,-8.8,24.6
2013-10-15 01:17:00,0.0,1.90578,0.00082,397.185,0.015,0.3852,0.0025,140.000,45.000,31591.86260,1.91325,399.046,32.063,45.057,45.000,0.00,0.12,-272.57,-272.64,-16,568,1,18.2,13.7,-10.1,18.2,14.4,-9.4,5.73,2.56,-8.8,24.6
2013-10-15 01:18:00,0.0,1.90586,0.00062,397.174,0.033,0.3866,0.0014,140.001,45.000,31594.55765,1.91300,399.041,32.063,45.057,45.000,0.00,0.11,-272.58,-272.64,-16,568,1,18.2,13.7,-10.0,18.2,14.4,-9.4,5.73,2.52,-8.7,24.6
2013-10-15 01:19:00,0.0,1.90612,0.00026,397.159,0.030,0.3875,0.0017,140.003,45.000,31593.24797,1.91350,399.032,32.062,45.057,45.000,0.00,0.11,-272.58,-272.64,-16,568,1,18.2,13.7,-10.0,18.2,14.4,-9.4,5.73,2.53,-8.8,24.6
2013-10-15 01:20:00,0.0,1.90557,0.00093,397.155,0.053,0.3888,0.0009,140.001,45.000,31594.95838,1.91318,399.034,32.051,45.058,45.000,0.00,0.12,-272.58,-272.64,-16,569,1,18.2,13.7,-10.0,18.2,14.4,-9.3,5.73,2.56,-8.8,24.6
2013-10-15 01:21:00,0.0,1.90603,0.00100,397.156,0.037,0.3879,0.0018,139.999,45.000,31595.32042,1.91300,399.026,32.063,45.057,45.000,0.00,0.11,-272.58,-272.63,-16,568,1,18.2,13.7,-10.0,18.2,14.4,-9.3,5.73,2.60,-8.8,24.6
2013-10-15 01:22:00,0.0,1.90699,0.00055,397.126,0.034,0.3888,0.0020,139.999,45.000,31595.65136,1.91450,399.003,32.060,45.058,45.000,0.00,0.11,-272.58,-272.64,-16,569,1,18.2,13.8,-10.0,18.2,14.4,-9.3,5.73,2.59,-8.8,24.6
2013-10-15 01:23:00,0.0,1.90555,0.00087,397.116,0.036,0.3900,0.0009,140.002,45.000,31596.62611,1.91298,399.001,32.063,45.058,45.000,0.00,0.11,-272.58,-272.64,-16,568,1,18.2,13.8,-9.9,18.3,14.5,-9.3,5.73,2.56,-8.8,24.6
2013-10-15 01:24:00,0.0,1.90516,0.00092,397.107,0.038,0.3885,0.0021,140.006,45.000,31596.94065,1.91259,398.987,32.063,45.058,45.000,0.00,0.11,-272.57,-272.64,-16,568,1,18.2,13.8,-9.9,18.3,14.4,-9.3,5.73,2.52,-8.8,24.6
2013-10-15 01:25:00,0.0,1.90605,0.00037,397.140,0.052,0.3880,0.0022,140.004,45.000,31597.14750,1.91337,399.014,32.063,45.058,45.000,0.00,0.11,-272.58,-272.63,-16,568,1,18.2,13.7,-10.0,18.3,14.4,-9.3,5.73,2.51,-8.8,24.7
2013-10-15 01:26:00,0.0,1.90551,0.00022,397.112,0.053,0.3908,0.0027,139.996,45.000,31595.20139,1.91301,398.994,32.063,45.058,45.000,0.00,0.11,-272.57,-272.64,-16,569,1,18.2,13.8,-9.9,18.3,14.5,-9.2,5.73,2.55,-8.8,24.6
2013-10-15 01:27:00,0.0,1.90620,0.00102,397.129,0.028,0.3924,0.0012,140.006,45.000,31597.32010,1.91347,399.026,32.063,45.058,45.000,0.00,0.11,-272.58,-272.63,-16,569,1,18.2,13.9,-9.8,18.3,14.5,-9.2,5.73,2.59,-8.8,24.6
2013-10-15 01:28:00,0.0,1.90569,0.00118,397.103,0.008,0.3928,0.0026,140.002,45.000,31596.72659,1.91317,399.000,32.063,45.058,45.000,0.00,0.11,-272.58,-272.64,-16,569,1,18.2,13.9,-9.8,18.3,14.6,-9.2,5.73,2.59,-8.8,24.6
2013-10-15 01:29:00,0.0,1.90605,0.00094,397.119,0.022,0.3930,0.0004,140.003,45.000,31597.89372,1.91357,399.015,32.068,45.058,45.000,0.00,0.11,-272.58,-272.65,-16,569,1,18.2,13.9,-9.8,18.3,14.6,-9.2,5.73,2.57,-8.8,24.7
2013-10-15 01:30:00,0.0,1.90499,0.00055,397.094,0.035,0.3924,0.0015,140.003,45.000,31596.72247,1.91239,398.992,32.064,45.058,45.000,0.00,0.11,-272.57,-272.64,-16,569,1,18.3,13.9,-9.8,18.3,14.6,-9.2,5.73,2.53,-8.8,24.7
2013-10-15 01:31:00,0.0,1.90570,0.00055,397.118,0.027,0.3917,0.0023,139.998,45.000,31598.11455,1.91316,399.012,32.069,45.058,45.000,0.00,0.11,-272.57,-272.63,-16,569,1,18.2,13.8,-9.9,18.3,14.5,-9.2,5.73,2.52,-8.8,24.7
2013-10-15 01:32:00,0.0,1.90666,0.00060,397.096,0.043,0.3915,0.0011,140.000,45.000,31598.28416,1.91402,398.982,32.093,45.058,45.000,0.00,0.11,-272.58,-272.64,-16,569,1,18.2,13.8,-9.9,18.3,14.5,-9.2,5.73,2.55,-8.7,24.7
2013-10-15 01:33:00,0.0,1.90535,0.00143,397.100,0.033,0.3930,0.0019,140.004,45.000,31599.34969,1.91294,399.000,32.120,45.057,45.000,0.00,0.11,-272.58,-272.64,-16,569,1,18.3,13.9,-9.8,18.3,14.6,-9.1,5.73,2.59,-8.7,24.7
2013-10-15 01:34:00,0.0,1.90689,0.00100,397.130,0.013,0.3921,0.0011,139.996,45.000,31597.52842,1.91394,399.024,32.120,45.057,45.000,0.00,0.11,-272.58,-272.63,-16,569,1,18.2,13.8,-9.9,18.3,14.5,-9.2,5.73,2.60,-8.7,24.7
2013-10-15 01:35:00,0.0,1.90796,0.00101,397.154,0.041,0.3929,0.0020,140.002,45.000,31597.64686,1.91550,399.052,32.125,45.057,45.000,0.00,0.11,-272.59,-272.63,-16,569,1,18.3,13.8,-9.9,18.3,14.5,-9.2,5.73,2.57,-8.7,24.7
2013-10-15 01:36:00,0.0,1.90662,0.00114,397.118,0.025,0.3921,0.0014,140.003,45.000,31597.27878,1.91420,399.016,32.114,45.057,45.000,0.00,0.11,-272.58,-272.64,-16,569,1,18.3,13.8,-9.8,18.3,14.5,-9.2,5.73,2.53,-8.7,24.7
2013-10-15 01:37:00,0.0,1.90660,0.00217,397.146,0.030,0.3891,0.0025,139.999,45.000,31597.54077,1.91406,399.024,32.123,45.057,45.000,0.00,0.11,-272.57,-272.63,-16,569,1,18.3,13.7,-9.9,18.3,14.4,-9.3,5.73,2.51,-8.7,24.7
2013-10-15 01:38:00,0.0,1.90662,0.00070,397.148,0.028,0.3880,0.0022,140.001,45.000,31598.98271,1.91409,399.021,32.123,45.057,45.000,0.00,0.11,-272.57,-272.64,-16,569,1,18.3,13.6,-10.0,18.3,14.3,-9.3,5.73,2.55,-8.7,24.7
2013-10-15 01:39:00,0.0,1.90560,0.00122,397.119,0.014,0.3869,0.0012,140.007,45.000,31600.47648,1.91280,398.990,32.114,45.057,45.000,0.00,0.11,-272.58,-272.63,-16,569,1,18.3,13.6,-10.0,18.3,14.3,-9.4,5.73,2.59,-8.7,24.7
2013-10-15 01:40:00,0.0,1.90643,0.00190,397.148,0.042,0.3854,0.0011,139.992,45.000,31598.14662,1.91343,399.003,32.104,45.057,45.000,0.00,0.11,-272.58,-272.64,-16,569,1,18.3,13.6,-10.1,18.3,14.2,-9.4,5.73,2.59,-8.7,24.7
2013-10-15 01:41:00,0.0,1.90628,0.00139,397.129,0.029,0.3903,0.0027,140.000,45.000,31599.38711,1.91415,399.019,32.097,45.057,45.000,0.00,0.11,-272.57,-272.64,-16,569,1,18.3,13.7,-10.0,18.3,14.4,-9.3,5.73,2.56,-8.7,24.7
2013-10-15 01:42:00,0.0,1.90636,0.00061,397.072,0.030,0.3917,0.0018,139.999,45.000,31599.24510,1.91360,398.966,32.082,45.058,45.000,0.00,0.11,-272.58,-272.64,-16,569,0,18.3,13.7,-9.9,18.3,14.4,-9.3,5.73,2.52,-8.7,24.7
2013-10-15 01:43:00,0.0,1.90584,0.00115,397.079,0.042,0.3907,0.0020,140.006,45.000,31601.49450,1.91354,398.971,32.083,45.058,45.000,0.00,0.11,-272.58,-272.64,-16,569,1,18.3,13.8,-9.9,18.3,14.4,-9.2,5.73,2.52,-8.7,24.7
2013-10-15 01:44:00,0.0,1.90572,0.00098,397.086,0.032,0.3928,0.0022,139.997,45.000,31599.28985,1.91282,398.974,32.078,45.058,45.000,0.00,0.12,-272.57,-272.64,-16,569,1,18.3,13.8,-9.9,18.3,14.4,-9.2,5.73,2.55,-8.7,24.7
2013-10-15 01:45:00,0.0,1.90704,0.00060,397.095,0.024,0.3947,0.0007,140.005,45.000,31598.41424,1.91461,398.999,32.077,45.058,45.000,0.00,0.12,-272.57,-272.64,-16,569,1,18.3,13.8,-9.8,18.3,14.5,-9.2,5.73,2.59,-8.7,24.7
2013-10-15 01:46:00,0.0,1.90676,0.00082,397.118,0.017,0.3944,0.0025,139.992,45.000,31595.50223,1.91438,399.027,32.079,45.058,45.000,0.00,0.11,-272.58,-272.64,-16,569,1,18.3,13.8,-9.8,18.3,14.5,-9.2,5.73,2.59,-8.7,24.7